Location: Newark
(30.1000°N, 109.4667°E)
Time: 21:04:50
(UTC+00:00)

A-11 Canister half - Pass Details

Date: 20 February 2020
Orbit: 1516 x 1683 km, 47.2° (Epoch: 09 April)

Event Time Altitude Azimuth Distance (km) Brightness Sun altitude
Rises 14:52:44 0° 310° (NW) 4,781 12.1 -55.6°
Reaches altitude 10° 14:55:58 10° 315° (NW) 3,772 11.4 -56.2°
Enters shadow 14:58:24 20° 320° (NW) 3,047 10.8 -56.7°
